User: anonymous   Login
Location: Unspecified
(0.0000°N, 0.0000°E)
Time: 18:46:00
(UTC+02:00)
Language:

Centaur AC-64 - Orbit

View from above orbital plane
View from above orbital plane
View from above satellite
View from above satellite

Ground track
Ground track

The orbit data is extracted from the following two-line orbital elements,

1 15874U 85055B   17204.72409662 +.00000561 +00000-0 +29546-3 0  9999
2 15874 023.2470 071.3202 6575170 235.9189 043.9111 03.19345230331633
Epoch (UTC): 23 July 2017 17:22:41
Eccentricity: 0.6575170
inclination: 23.2470°
perigee height: 293 km
apogee height: 25908 km
right ascension of ascending node: 71.3202°
argument of perigee: 235.9189°
revolutions per day: 3.19345230
mean anomaly at epoch: 43.9111°
orbit number at epoch: 33163

The dashed part of the orbit path shows where the satellite is in the earth's shadow,  

DLR